User: anonymous   Login
Location: Unspecified
(0.0000°N, 0.0000°E)
Time: 08:57:43
(UTC+00:00)
Language:

AGILE - Orbit

View from above orbital plane
View from above orbital plane
View from above satellite
View from above satellite

Ground track
Ground track

The orbit data is extracted from the following two-line orbital elements,

1 31135U 07013A   15063.33500827  .00010151  00000-0  36577-3 0  9996
2 31135 002.4673 114.8050 0014726 355.5251 004.4671 15.23631874435680
Epoch (UTC): 04 March 2015 08:02:24
Eccentricity: 0.0014726
inclination: 2.4673°
perigee height: 485 km
apogee height: 505 km
right ascension of ascending node: 114.8050°
argument of perigee: 355.5251°
revolutions per day: 15.23631874
mean anomaly at epoch: 4.4671°
orbit number at epoch: 43568

The dashed part of the orbit path shows where the satellite is in the earth's shadow,  

DLR